{"data":{"norad_id":52374,"epoch":"2026-05-25T04:38:33.811296Z","epoch_age_seconds":68986,"freshness":"FRESH","line1":"1 52374U 22045AV  26145.19344689 -.00000108  00000+0  11320-4 0  9996","line2":"2 52374  53.2127 205.6832 0001491  81.7668 278.3494 15.08837680227475","mean_motion":15.0883768,"eccentricity":0.0001491,"inclination_deg":53.2127,"raan_deg":205.6832,"arg_perigee_deg":81.7668,"mean_anomaly_deg":278.3494,"bstar":1.132e-5,"rev_number":22747,"period_min":95.437701423257,"perigee_km":538.71902326175,"apogee_km":540.78193730837,"semimajor_km":6917.8874802851,"source":"CELESTRAK","updated_at":"2026-05-25T13:38:17.121660Z"}}